This demonstration page uses our WeatherBlox Daily Observations layout. Learn more.

Left ArrowRight Arrow

39.08367, -84.50855

Hourly Observations for September 29, 2017

Temp ( °F °C ) Dew Point ( °F °C ) Humidity (%) Winds ( mph kmh ) Pressure ( in mb ) Visibility ( mi km ) Precip ( " mm )
12:53 am 00:53 Clear 54 12.2 52 11.1 93 93 N N/A 30.14 1021 10 16 N/A
1:53 am 01:53 Clear 52 11.1 51 10.6 97 97 N N/A 30.14 1021 10 16 N/A
2:53 am 02:53 Clear 51 10.6 50 10 96 96 N N/A 30.14 1021 10 16 N/A
3:53 am 03:53 Clear 50 10 50 10 100 100 N N/A 30.14 1021 10 16 N/A
4:53 am 04:53 Clear 50 10 50 10 100 100 N N/A 30.14 1021 10 16 N/A
5:53 am 05:53 Clear 48 8.9 48 8.9 100 100 N N/A 30.15 1021 10 16 N/A
6:53 am 06:53 Clear 48 8.9 48 8.9 100 100 N N/A 30.16 1022 10 16 N/A
7:53 am 07:53 Sunny 48 8.9 48 8.9 100 100 N N/A 30.19 1022 10 16 N/A
8:53 am 08:53 Sunny 53 11.7 52 11.1 96 96 N N/A 30.19 1023 10 16 N/A
9:53 am 09:53 Sunny 60 15.6 52 11.1 75 75 N N/A 30.19 1022 10 16 N/A
10:53 am 10:53 Sunny 65 18.3 55 12.8 70 70 N N/A 30.19 1022 10 16 N/A
11:53 am 11:53 Sunny 69 20.6 50 10 51 51 VRB 3 6 30.18 1022 10 16 N/A
12:53 pm 12:53 Sunny 73 22.8 50 10 44 44 VRB 7 11 30.16 1022 10 16 N/A
1:53 pm 13:53 Sunny 76 24.4 47 8.3 36 36 WSW 8 13 30.15 1021 10 16 N/A
2:53 pm 14:53 Sunny 77 25 49 9.4 37 37 WSW 9 15 30.12 1020 10 16 N/A
3:53 pm 15:53 Partly Cloudy 77 25 46 7.8 33 33 NNW 8 13 30.12 1020 10 16 N/A
4:53 pm 16:53 Partly Cloudy 77 25 48 8.9 36 36 W 13 20 30.10 1019 10 16 N/A
5:53 pm 17:53 Mostly Cloudy 78 25.6 48 8.9 35 35 W 8 13 30.10 1019 10 16 N/A
6:53 pm 18:53 Mostly Cloudy 76 24.4 48 8.9 37 37 NNW 8 13 30.11 1020 10 16 N/A
7:53 pm 19:53 Mostly Clear 71 21.7 47 8.3 42 42 N 7 11 30.14 1021 10 16 N/A
8:53 pm 20:53 Clear 69 20.6 47 8.3 45 45 N 10 17 30.16 1021 10 16 N/A
9:53 pm 21:53 Clear 67 19.4 44 6.7 44 44 N 10 17 30.19 1023 10 16 N/A
10:53 pm 22:53 Clear 63 17.2 44 6.7 50 50 N 10 17 30.22 1023 10 16 N/A
11:53 pm 23:53 Clear 62 16.7 44 6.7 52 52 N 8 13 30.23 1024 10 16 N/A

Powered by AerisWeather